Погода в Ишимбае

Россия / Республика Башкортостан     53°27′16″N   56°02′38″E
темп.,
°C
ветер,
м/с
пор.,
м/с
влажн.,
%
обл.,
%
осадки,
мм/ч
давл.,
гПа
погр.,
м
7 мая, пт
пт723:00+9всв11795 0.1 102010
02:00+8юв118332 0.0 102010
05:00+9ю228035 0.0 102034
08:00+11ю23705 0.0 1020166
11:00+17ю33525 0.0 1020989
14:00+19юз124072 0.0 10192356
17:00+18ююз224897 0.0 1018668
20:00+15ссз116398 0.0 101811
8 мая, сб
сб823:00+12вюв1164100 0.0 101811
02:00+12юв1164100 0.0 101810
05:00+12вюв1161100 0.0 101810
08:00+14юв1261100 0.0 1018101
11:00+18ююз2249100 0.0 1017667
14:00+20сз1240100 0.0 10172140
17:00+20ссв2138100 0.0 10162186
20:00+16в346496 0.0 101665
9 мая, вс
вс923:00+13св11637 0.0 101610
02:00+11зсз117254 0.0 101610
05:00+10св227515 0.0 101611
08:00+14св11645 0.0 1016138
11:00+19с22505 0.0 1016726
14:00+21ссв22371 0.0 10152098
17:00+21с22363 0.0 10152352
20:00+18св22520 0.0 101511
10 мая, пн
пн1023:00+14в00570 0.0 101610
02:00+12в116360 0.0 101710
05:00+11вюв11685 0.0 101810
08:00+15вюв11626 0.0 1020118
11:00+20св11469 0.0 1020611
14:00+22ссз1133100 0.0 10202061
17:00+22сз3235100 0.0 10201622
20:00+19ссв225499 0.0 102014
11 мая, вт
вт1123:00+15всв1155100 0.0 102111
02:00+14ссз0060100 0.0 102111
05:00+12с2379100 0.0 102250
08:00+14ссв2481100 0.0 1023215
11:00+18ссв5665100 0.0 1024690
14:00+21с5555100 0.0 10241347
17:00+19с55605 0.2 10241129
20:00+16с48714 0.0 1025344